This is the latest recevied weather packets stored in our database for station/object KE8GJZ-2. If no packets are shown the sender has not sent any weather packets the latest 10 day(s).
| Time | Temp. | Humidity | Pressure | Rain* | Wind** | Luminosity | Snow |
|---|---|---|---|---|---|---|---|
| 1778086499 | 11.11° C | 45% | 1013.4 hPa | 0 mm | - | 513 W/m² | - |
| 1778086194 | 11.67° C | 45% | 1013.4 hPa | 0 mm | - | 390 W/m² | - |
| 1778085891 | 11.11° C | 45% | 1013.4 hPa | 0 mm | - | 498 W/m² | - |
| 1778085589 | 11.11° C | 44% | 1013.3 hPa | 0 mm | - | 285 W/m² | - |
| 1778085284 | 11.11° C | 44% | 1013.4 hPa | 0 mm | - | 273 W/m² | - |
| 1778084979 | 11.11° C | 44% | 1013.4 hPa | 0 mm | - | 272 W/m² | - |
| 1778084676 | 10.56° C | 52% | 1013.2 hPa | 0 mm | - | 448 W/m² | - |
| 1778084368 | 11.67° C | 45% | 1013.4 hPa | 0 mm | - | 797 W/m² | - |
| 1778084066 | 11.11° C | 48% | 1013.5 hPa | 0 mm | - | 713 W/m² | - |
| 1778083763 | 11.67° C | 44% | 1013.5 hPa | 0 mm | - | 369 W/m² | - |
| 1778083460 | 11.11° C | 47% | 1013.4 hPa | 0 mm | - | 459 W/m² | - |
| 1778083158 | 10.56° C | 47% | 1013.3 hPa | 0 mm | - | 462 W/m² | - |
| 1778082855 | 10.56° C | 48% | 1013.5 hPa | 0 mm | - | 420 W/m² | - |
| 1778081737 | 10.56° C | 46% | 1013.7 hPa | 0 mm | - | 397 W/m² | - |
| 1778081434 | 11.11° C | 45% | 1013.3 hPa | 0 mm | - | 741 W/m² | - |
| 1778081131 | 11.11° C | 44% | 1013.6 hPa | 0 mm | - | 734 W/m² | - |
| 1778080829 | 10.56° C | 44% | 1013.6 hPa | 0 mm | - | 670 W/m² | - |
| 1778080527 | 10.56° C | 49% | 1013.8 hPa | 0 mm | - | 462 W/m² | - |
| 1778080224 | 10° C | 48% | 1013.5 hPa | 0 mm | - | 453 W/m² | - |
| 1778079920 | 10° C | 47% | 1013.7 hPa | 0 mm | - | 436 W/m² | - |
| 1778079617 | 9.44° C | 48% | 1013.7 hPa | 0 mm | - | 340 W/m² | - |
| 1778079314 | 10° C | 46% | 1013.7 hPa | 0 mm | - | 391 W/m² | - |
| 1778079012 | 10° C | 48% | 1013.8 hPa | 0 mm | - | 385 W/m² | - |
| 1778078708 | 10° C | 45% | 1013.7 hPa | 0 mm | - | 353 W/m² | - |
| 1778078405 | 9.44° C | 48% | 1013.6 hPa | 0 mm | - | 407 W/m² | - |
* Rain latest hour (hover to see other rain measurements)
** Current wind speed in m/s (hover to see current wind gust speed)